GFSNIL_sfc_vis_159.txt.gz
Visibility
15.0 15.0 15.0 15.0 15.0 15.0 15.0 15.0 15.0 15.0 15.0 15.0 15.0 15.0 15.0 15.0 15.0 15.0 15.0 15.0 15.0 15.0
15.0 15.0 15.0 15.0 15.0 15.0 15.0 15.0 15.0 14.8 15.0 15.0 15.0 15.0 15.0 15.0 15.0 15.0 15.0 15.0 15.0 15.0
15.0 15.0 15.0 15.0 15.0 15.0 15.0 15.0 15.0 15.0 15.0 15.0 15.0 15.0 15.0 15.0 15.0 15.0 15.0 15.0 15.0 15.0
15.0 15.0 15.0 15.0 15.0 15.0 15.0 9.5 15.0 15.0 15.0 12.1 15.0 10.1 15.0 15.0 14.6 15.0 12.2 15.0 15.0 15.0
15.0 15.0 15.0 15.0 15.0 15.0 15.0 15.0 15.0 15.0 15.0 15.0 15.0 15.0 14.3 15.0 15.0 15.0 15.0 15.0 6.5 15.0
15.0 15.0 15.0 15.0 15.0 15.0 15.0 15.0 15.0 15.0 11.1 15.0 15.0 15.0 15.0 15.0 15.0 15.0 15.0 15.0 15.0 15.0
15.0 15.0 15.0 15.0 15.0 15.0 15.0 15.0 15.0 15.0 15.0 15.0 15.0 15.0 15.0 15.0 15.0 13.4 15.0 15.0 15.0 15.0
6.6 15.0 15.0 15.0 15.0 15.0 15.0 15.0 15.0 8.6 15.0 15.0 15.0 15.0 15.0 15.0 15.0 15.0 15.0 15.0 15.0 15.0
15.0 15.0 7.7 15.0 3.5 3.7 9.9 5.0 6.9 15.0 6.6 15.0 15.0 15.0 15.0 15.0 15.0 14.9 5.6 15.0 15.0 15.0
15.0 15.0 15.0 15.0 15.0 15.0 10.3 11.5 5.6 13.8 8.5 7.0 13.1 15.0 15.0 12.3 15.0 15.0 8.5 13.2 7.1 15.0
9.1 15.0 15.0 15.0 15.0 15.0 5.2 10.8 15.0 15.0 7.5 6.9 15.0 15.0 15.0 15.0 15.0 15.0 12.5 11.6 8.8 10.7
13.4 15.0 15.0 15.0 15.0 15.0 15.0 3.4 2.9 5.6 14.0 3.6 3.6 0.1 0.1 0.1 9.8 13.8 11.2 9.9 8.5 10.9
15.0 15.0 15.0 15.0 15.0 14.8 15.0 15.0 15.0 4.3 3.6 1.3 1.9 0.0 0.1 0.1 6.9 14.7 14.9 12.6 5.7 0.3
5.8 15.0 15.0 15.0 5.5 8.1 15.0 15.0 15.0 10.2 9.3 10.0 7.2 10.1 5.2 0.1 15.0 15.0 12.9 11.1 7.8 6.0

GFSNIL_sfc_vis_162.txt.gz
Visibility
15.0 15.0 15.0 15.0 15.0 15.0 15.0 15.0 15.0 15.0 15.0 15.0 15.0 15.0 15.0 15.0 15.0 15.0 15.0 15.0 15.0 15.0
5.8 15.0 15.0 15.0 15.0 15.0 15.0 15.0 15.0 15.0 15.0 15.0 15.0 15.0 15.0 15.0 15.0 15.0 15.0 15.0 15.0 15.0
15.0 15.0 15.0 10.2 14.2 15.0 15.0 15.0 15.0 15.0 15.0 9.3 15.0 15.0 15.0 15.0 15.0 15.0 15.0 15.0 15.0 15.0
15.0 15.0 15.0 15.0 14.7 15.0 15.0 15.0 15.0 15.0 10.7 15.0 14.5 8.5 8.3 14.2 12.3 15.0 15.0 15.0 15.0 15.0
15.0 15.0 10.3 15.0 14.3 14.4 15.0 15.0 15.0 15.0 15.0 14.4 15.0 9.3 8.0 14.4 15.0 6.2 15.0 15.0 15.0 10.2
15.0 15.0 15.0 15.0 15.0 4.7 9.6 15.0 15.0 15.0 4.2 15.0 9.2 15.0 14.1 14.0 15.0 14.3 9.3 13.2 6.6 15.0
15.0 15.0 15.0 15.0 15.0 15.0 15.0 11.6 15.0 15.0 15.0 15.0 15.0 15.0 11.8 15.0 15.0 15.0 15.0 15.0 10.4 15.0
15.0 5.0 15.0 15.0 15.0 15.0 15.0 5.7 15.0 15.0 15.0 15.0 15.0 12.2 15.0 15.0 7.0 15.0 15.0 15.0 8.6 15.0
2.9 6.0 10.1 15.0 3.6 3.7 15.0 6.2 15.0 15.0 15.0 15.0 15.0 15.0 15.0 15.0 15.0 14.9 15.0 15.0 15.0 15.0
14.5 0.7 15.0 15.0 2.8 15.0 15.0 4.6 11.6 15.0 13.5 15.0 15.0 12.7 15.0 15.0 8.2 7.8 15.0 7.7 15.0 15.0
4.2 1.6 2.8 3.0 2.2 10.2 15.0 7.2 2.8 7.4 9.0 15.0 14.1 0.0 2.4 15.0 15.0 15.0 9.9 14.5 15.0 12.5
3.2 0.8 0.9 3.8 2.5 4.2 3.4 15.0 15.0 4.5 8.3 2.6 3.1 0.1 0.1 0.1 6.1 5.3 9.0 15.0 5.0 10.3
15.0 4.1 2.8 3.0 1.9 3.4 3.8 14.0 15.0 2.7 9.9 2.2 0.1 0.1 0.3 0.1 2.4 4.0 4.5 5.8 4.9 0.1
15.0 13.9 14.4 7.2 2.6 2.3 15.0 15.0 15.0 14.0 13.6 15.0 9.7 3.7 6.5 0.3 7.6 15.0 10.9 5.5 3.3 12.3

GFSNIL_sfc_vis_168.txt.gz
Visibility
15.0 15.0 15.0 15.0 15.0 15.0 15.0 15.0 15.0 15.0 15.0 15.0 15.0 15.0 15.0 15.0 15.0 15.0 15.0 15.0 15.0 15.0
15.0 15.0 15.0 15.0 15.0 15.0 15.0 15.0 15.0 15.0 15.0 15.0 15.0 13.7 15.0 15.0 15.0 15.0 15.0 15.0 15.0 15.0
15.0 15.0 15.0 15.0 15.0 15.0 15.0 15.0 15.0 15.0 12.5 15.0 15.0 15.0 15.0 8.4 15.0 15.0 15.0 15.0 15.0 15.0
15.0 15.0 15.0 15.0 15.0 15.0 15.0 15.0 15.0 15.0 15.0 15.0 15.0 15.0 9.7 15.0 15.0 15.0 15.0 15.0 15.0 15.0
15.0 15.0 15.0 15.0 15.0 12.5 15.0 15.0 15.0 15.0 15.0 15.0 15.0 15.0 15.0 2.0 15.0 15.0 15.0 15.0 15.0 15.0
15.0 15.0 15.0 15.0 15.0 15.0 15.0 2.3 15.0 15.0 15.0 15.0 15.0 15.0 10.9 15.0 14.7 15.0 15.0 15.0 15.0 15.0
9.5 1.9 15.0 15.0 15.0 15.0 15.0 15.0 15.0 15.0 15.0 15.0 15.0 15.0 15.0 15.0 15.0 15.0 15.0 15.0 10.9 15.0
15.0 6.4 11.2 2.6 3.0 14.4 4.2 15.0 8.2 3.0 3.8 5.4 15.0 15.0 15.0 15.0 15.0 15.0 15.0 15.0 15.0 15.0
15.0 15.0 14.8 12.0 6.2 6.0 4.8 14.9 15.0 2.3 4.9 4.8 15.0 15.0 15.0 15.0 15.0 15.0 15.0 15.0 15.0 10.5
15.0 2.9 2.5 15.0 15.0 15.0 8.4 15.0 15.0 10.2 13.8 4.6 12.0 15.0 15.0 15.0 15.0 15.0 15.0 15.0 15.0 10.0
1.7 2.4 3.2 11.8 15.0 2.8 11.5 9.2 14.0 13.7 4.3 15.0 1.6 0.0 1.2 15.0 15.0 15.0 15.0 15.0 15.0 15.0
0.7 0.4 1.4 13.7 4.2 5.1 5.0 13.7 15.0 15.0 14.3 13.4 0.0 0.1 0.1 0.1 4.6 15.0 15.0 15.0 15.0 15.0
15.0 15.0 15.0 15.0 15.0 12.2 15.0 0.2 3.2 0.3 0.1 0.1 0.0 0.1 0.1 0.1 0.1 0.1 3.4 13.8 0.0 0.0
15.0 15.0 15.0 15.0 15.0 13.2 0.2 0.3 0.1 0.1 0.1 0.1 0.1 0.1 0.1 0.0 3.0 13.5 10.0 0.0 0.0 0.1

GFSNIL_sfc_vis_171.txt.gz
Visibility
15.0 15.0 15.0 15.0 15.0 15.0 15.0 15.0 15.0 15.0 15.0 15.0 15.0 15.0 15.0 15.0 15.0 15.0 15.0 15.0 15.0 15.0
15.0 15.0 15.0 15.0 15.0 15.0 15.0 15.0 15.0 15.0 15.0 15.0 15.0 15.0 15.0 15.0 15.0 15.0 15.0 15.0 15.0 15.0
15.0 15.0 15.0 15.0 15.0 15.0 15.0 15.0 15.0 15.0 15.0 15.0 15.0 15.0 15.0 15.0 15.0 15.0 15.0 15.0 15.0 15.0
15.0 15.0 15.0 15.0 15.0 15.0 15.0 15.0 15.0 15.0 15.0 15.0 15.0 15.0 15.0 15.0 15.0 15.0 9.3 15.0 15.0 15.0
15.0 15.0 15.0 15.0 15.0 15.0 15.0 15.0 15.0 15.0 15.0 15.0 15.0 15.0 15.0 15.0 15.0 15.0 15.0 15.0 15.0 15.0
15.0 15.0 15.0 15.0 15.0 15.0 15.0 15.0 15.0 15.0 15.0 15.0 15.0 15.0 15.0 15.0 15.0 15.0 15.0 15.0 15.0 15.0
15.0 8.2 9.7 15.0 8.3 15.0 15.0 15.0 8.9 11.1 15.0 15.0 8.2 15.0 15.0 15.0 15.0 15.0 15.0 15.0 15.0 15.0
15.0 15.0 13.7 12.3 1.3 11.4 2.9 12.7 15.0 4.9 4.3 6.3 15.0 15.0 5.8 7.6 15.0 15.0 15.0 15.0 15.0 15.0
15.0 2.9 2.4 15.0 15.0 13.0 5.7 15.0 15.0 15.0 15.0 12.5 15.0 4.3 4.7 6.5 8.5 15.0 15.0 15.0 15.0 15.0
15.0 2.5 15.0 15.0 2.1 8.3 15.0 15.0 15.0 15.0 15.0 15.0 15.0 15.0 15.0 15.0 15.0 6.6 15.0 15.0 15.0 15.0
15.0 15.0 5.6 1.9 0.9 1.8 15.0 15.0 15.0 15.0 15.0 15.0 15.0 6.9 7.1 15.0 15.0 15.0 14.5 15.0 15.0 15.0
15.0 15.0 15.0 15.0 5.3 11.7 6.3 4.1 15.0 15.0 10.0 13.0 14.8 0.0 0.0 0.1 15.0 15.0 15.0 4.2 15.0 15.0
15.0 15.0 15.0 15.0 15.0 14.9 14.1 8.8 9.6 0.3 13.7 3.0 0.0 0.0 0.0 0.0 0.0 0.1 0.3 4.9 0.2 0.0
15.0 15.0 15.0 15.0 15.0 15.0 0.2 0.5 0.3 0.1 0.1 0.1 0.2 0.1 0.1 0.0 0.1 0.1 1.3 0.2 0.0 0.1